Prescott, AZ

9:10 PM MST on November 11, 2019 (GMT -0700)
Love

Weather History for KPRC - September, 2019

Change the Weather History Date:

Monday, September 16, 2019

  Actual Average Record
Temperature  
Mean Temperature 72 °F 68 °F  
Max Temperature 82 °F 82 °F 94 °F (1956)
Min Temperature 63 °F 53 °F 41 °F (1970)
Degree Days  
Heating Degree Days 0    
Month to date heating degree days 0  
Since 1 July heating degree days 0  
Cooling Degree Days 8    
Month to date cooling degree days 146  
Year to date cooling degree days 1121  
Growing Degree Days 22 (Base 50)    
Moisture  
Dew Point 52 °F    
Average Humidity 54    
Maximum Humidity 75    
Minimum Humidity 23    
Precipitation  
Precipitation 0.14 in 0.04 in 0.78 in (1999)
Month to date precipitation 1.38 0.87  
Year to date precipitation 9.49 10.53  
Sea Level Pressure  
Sea Level Pressure 29.93 in    
Wind  
Wind Speed 6 mph ()    
Max Wind Speed 20 mph    
Max Gust Speed 28 mph    
Visibility 10.0 miles    
Events Rain , Thunderstorm    
T = Trace of Precipitation, MM = Missing Value Source: Averaged Metar Reports

Daily Weather History Graph

Daily Weather History Graph

Search for Another Location

Airport or City:

Astronomy

Sep. 16, 2019 Rise Set
Actual Time 6:13 AM MST 6:35 PM MST
Civil Twilight 5:48 AM MST 7:00 PM MST
Nautical Twilight 5:18 AM MST 7:29 PM MST
Astronomical Twilight 4:48 AM MST 7:59 PM MST
Moon 8:16 PM MST (9/16) 8:19 AM MST (9/16)
Length of Visible Light 13h 12m
Length of Day
12h 21m
Waning Gibbous, 94% of the Moon is Illuminated
Sep 16
Waning Gibbous
Sep 21
Last Quarter
Sep 28
New
Oct 5
First Quarter
Oct 13
Full

Hourly Weather History & Observations

Time (MST) Temp. Dew Point Humidity Pressure Visibility Wind Dir Wind Speed Gust Speed Precip Events Conditions
12:53 AM 64.0 °F 52.0 °F 65% 29.89 in 10.0 mi South 5.8 mph - N/A   Clear
1:53 AM 64.0 °F 52.0 °F 65% 29.89 in 10.0 mi SSE 3.5 mph - N/A   Clear
2:53 AM 64.0 °F 53.1 °F 67% 29.88 in 10.0 mi South 4.6 mph - N/A   Clear
3:53 AM 66.0 °F 52.0 °F 60% 29.89 in 10.0 mi SSE 5.8 mph - N/A   Clear
4:53 AM 66.0 °F 53.1 °F 63% 29.89 in 10.0 mi Calm Calm - N/A   Clear
5:53 AM 64.0 °F 53.1 °F 67% 29.91 in 10.0 mi SW 3.5 mph - N/A   Partly Cloudy
6:53 AM 66.0 °F 54.0 °F 65% 29.92 in 10.0 mi SE 4.6 mph - N/A   Scattered Clouds
7:53 AM 70.0 °F 54.0 °F 57% 29.93 in 10.0 mi SSE 8.1 mph - N/A   Scattered Clouds
8:53 AM 71.1 °F 57.9 °F 63% 29.94 in 10.0 mi South 8.1 mph - N/A   Scattered Clouds
9:07 AM 71.6 °F 59.0 °F 64% 30.17 in 10.0 mi South 6.9 mph - N/A Thunderstorm Scattered Clouds
9:28 AM 73.0 °F 59.0 °F 61% 30.19 in 10.0 mi WSW 13.8 mph 24.2 mph N/A Rain , Thunderstorm Light Thunderstorms and Rain
9:53 AM 68.0 °F 53.1 °F 59% 29.96 in 10.0 mi SSW 10.4 mph - 0.05 in Rain , Thunderstorm Light Thunderstorms and Rain
10:38 AM 72.0 °F 60.1 °F 66% 30.17 in 10.0 mi WSW 5.8 mph - 0.01 in Thunderstorm Partly Cloudy
10:53 AM 73.0 °F 60.1 °F 64% 29.95 in 10.0 mi SW 8.1 mph - 0.01 in   Scattered Clouds
11:53 AM 77.0 °F 53.1 °F 43% 29.92 in 10.0 mi SSW 10.4 mph 18.4 mph N/A   Scattered Clouds
12:53 PM 80.6 °F 46.4 °F 30% 29.90 in 10.0 mi West 11.5 mph - N/A   Scattered Clouds
1:53 PM 81.0 °F 39.9 °F 23% 29.87 in 10.0 mi WSW 10.4 mph 27.6 mph N/A   Scattered Clouds
2:53 PM 80.1 °F 42.1 °F 26% 29.84 in 10.0 mi SW 9.2 mph 19.6 mph N/A   Partly Cloudy
3:42 PM 80.1 °F 46.9 °F 31% 30.07 in 10.0 mi SSW 11.5 mph - N/A Thunderstorm Scattered Clouds
3:53 PM 80.1 °F 46.0 °F 30% 29.83 in 10.0 mi WSW 18.4 mph 23.0 mph N/A Thunderstorm Scattered Clouds
4:53 PM 78.1 °F 48.0 °F 35% 29.82 in 10.0 mi SSW 10.4 mph - N/A   Clear
5:53 PM 75.9 °F 48.9 °F 38% 29.84 in 10.0 mi SSW 12.7 mph - N/A   Partly Cloudy
6:53 PM 73.9 °F 50.0 °F 43% 29.84 in 10.0 mi SSW 8.1 mph - N/A   Clear
7:53 PM 73.0 °F 51.1 °F 46% 29.83 in 10.0 mi South 9.2 mph - N/A   Clear
8:53 PM 72.0 °F 51.1 °F 48% 29.85 in 10.0 mi SSW 5.8 mph - N/A Thunderstorm Thunderstorm
9:53 PM 66.0 °F 57.9 °F 75% 29.91 in 10.0 mi SSW 13.8 mph 19.6 mph 0.07 in   Partly Cloudy
10:53 PM 64.9 °F 54.0 °F 68% 29.88 in 10.0 mi Variable 3.5 mph - 0.00 in Thunderstorm Partly Cloudy
11:23 PM 64.9 °F 53.1 °F 65% 30.11 in 9.0 mi Calm Calm - 0.01 in Rain , Thunderstorm Light Thunderstorms and Rain
11:53 PM 64.0 °F 54.0 °F 70% 29.88 in 10.0 mi SE 6.9 mph - 0.01 in   Mostly Cloudy